TimeCST,TemperatureF,Dew PointF,Humidity,Sea Level PressureIn,VisibilityMPH,Wind Direction,Wind SpeedMPH,Gust SpeedMPH,PrecipitationIn,Events,Conditions,WindDirDegrees,DateUTC
12:53 AM,43.0,33.1,68,29.81,10.0,South,21.9,28.8,N/A,,Clear,170,2012-11-08 06:53:00
1:53 AM,42.1,33.1,70,29.81,10.0,South,20.7,28.8,N/A,,Clear,170,2012-11-08 07:53:00
2:53 AM,41.0,32.0,70,29.81,10.0,South,19.6,27.6,N/A,,Clear,170,2012-11-08 08:53:00
3:53 AM,39.9,32.0,73,29.84,10.0,South,12.7,-,N/A,,Clear,170,2012-11-08 09:53:00
4:53 AM,39.0,32.0,76,29.83,10.0,South,15.0,-,N/A,,Clear,170,2012-11-08 10:53:00
5:53 AM,39.0,32.0,76,29.86,10.0,South,11.5,-,N/A,,Clear,170,2012-11-08 11:53:00
6:53 AM,37.9,32.0,79,29.87,10.0,SSW,9.2,-,N/A,,Partly Cloudy,210,2012-11-08 12:53:00
7:53 AM,37.9,32.0,79,29.90,10.0,South,3.5,-,N/A,,Scattered Clouds,190,2012-11-08 13:53:00
8:53 AM,41.0,33.1,73,29.93,10.0,WSW,3.5,-,N/A,,Mostly Cloudy,240,2012-11-08 14:53:00
9:35 AM,42.8,35.6,76,29.92,10.0,WNW,10.4,-,N/A,,Overcast,300,2012-11-08 15:35:00
9:53 AM,42.1,35.1,76,29.96,10.0,NW,19.6,-,N/A,,Overcast,320,2012-11-08 15:53:00
10:53 AM,42.1,36.0,79,29.99,9.0,NNW,16.1,26.5,N/A,,Overcast,340,2012-11-08 16:53:00
11:53 AM,42.1,35.1,76,30.01,10.0,North,20.7,27.6,N/A,,Overcast,360,2012-11-08 17:53:00
12:46 PM,42.8,35.6,76,29.99,10.0,North,16.1,-,N/A,,Overcast,350,2012-11-08 18:46:00
12:53 PM,42.1,35.1,76,30.01,10.0,North,18.4,-,N/A,,Overcast,360,2012-11-08 18:53:00
1:14 PM,42.8,35.6,76,29.99,10.0,North,19.6,-,N/A,,Overcast,350,2012-11-08 19:14:00
1:53 PM,41.0,34.0,76,30.04,10.0,NNW,16.1,27.6,N/A,,Overcast,340,2012-11-08 19:53:00
2:33 PM,41.0,33.8,76,30.02,10.0,North,17.3,-,N/A,,Overcast,360,2012-11-08 20:33:00
2:53 PM,41.0,33.1,73,30.05,10.0,North,19.6,-,N/A,,Overcast,350,2012-11-08 20:53:00
3:53 PM,39.9,32.0,73,30.08,10.0,North,23.0,-,N/A,,Overcast,10,2012-11-08 21:53:00
4:53 PM,39.0,32.0,76,30.10,10.0,North,17.3,-,N/A,,Overcast,10,2012-11-08 22:53:00
5:53 PM,37.9,30.9,76,30.11,10.0,North,17.3,-,N/A,,Overcast,10,2012-11-08 23:53:00
6:53 PM,37.0,28.9,73,30.12,10.0,North,17.3,-,N/A,,Overcast,360,2012-11-09 00:53:00
7:53 PM,37.0,28.9,73,30.12,10.0,North,17.3,-,N/A,,Overcast,10,2012-11-09 01:53:00
8:53 PM,35.1,28.0,76,30.14,10.0,North,17.3,-,N/A,,Overcast,10,2012-11-09 02:53:00
9:53 PM,34.0,28.0,79,30.15,10.0,North,15.0,-,N/A,,Overcast,10,2012-11-09 03:53:00
10:53 PM,34.0,28.0,79,30.17,10.0,North,17.3,25.3,N/A,,Overcast,360,2012-11-09 04:53:00
11:53 PM,33.1,28.0,82,30.18,10.0,North,18.4,-,N/A,,Overcast,360,2012-11-09 05:53:00